Location: Mountain Grove
(34.0887°N, 86.6172°W)
Time: 22:07:55
(UTC+00:00)

ARIANE 5 R/B - Pass Details

Date: 14 July 2020
Orbit: 749 x 794 km, 98.6° (Epoch: 08 August)

Event Time Altitude Azimuth Distance (km) Brightness Sun altitude
Rises 07:56:00 0° 22° (NNE) 3,240 7.0 -27.0°
Reaches altitude 10° 07:58:27 10° 31° (NNE) 2,317 6.0 -26.8°
Maximum altitude 08:03:11 38° 99° (E) 1,172 3.6 -26.2°
Enters shadow 08:04:30 33° 131° (SE) 1,296 3.6 -26.1°
